User: anonymous   Login
Location: Unspecified
(0.0000°N, 0.0000°E)
Time: 09:04:32
(UTC+00:00)
Language:

USA 229 - Orbit

View from above orbital plane
View from above orbital plane
View from above satellite
View from above satellite

Ground track
Ground track

The orbit data is extracted from the following two-line orbital elements,

1 37386U 11014A   18260.88753820 0.00000050  00000-0  87567-4 0    07
2 37386  63.4376 291.7292 0108000   1.2230 358.7770 13.40763180    07
Epoch (UTC): 17 September 2018 21:18:03
Eccentricity: 0.0108000
inclination: 63.4376°
perigee height: 1025 km
apogee height: 1187 km
right ascension of ascending node: 291.7292°
argument of perigee: 1.2230°
revolutions per day: 13.40763180
mean anomaly at epoch: 358.7770°
orbit number at epoch: 0

The dashed part of the orbit path shows where the satellite is in the earth's shadow,  

DLR